Oxford, NC

2:19 AM EDT on September 18, 2019 (GMT -0400)
Henderson-Oxford

Weather History for KHNZ - August, 2019

Change the Weather History Date:

Sunday, August 25, 2019

  Actual Average (WUND) Record (WUND)
Temperature  
Mean Temperature 69 °F -  
Max Temperature 75 °F - - (-1)
Min Temperature 63 °F - - (-1)
Cooling Degree Days 4    
Growing Degree Days 19 (Base 50)    
Moisture  
Dew Point 56 °F    
Average Humidity 61    
Maximum Humidity 86    
Minimum Humidity 46    
Precipitation  
Precipitation 0.00 in - - ()
Sea Level Pressure  
Sea Level Pressure 30.13 in    
Wind  
Wind Speed 5 mph ()    
Max Wind Speed 12 mph    
Max Gust Speed 18 mph    
Visibility 10.0 miles    
Events      
Averages and records for this station are not official NWS values.
T = Trace of Precipitation, MM = Missing Value Source: Averaged Metar Reports

Daily Weather History Graph

Daily Weather History Graph

Search for Another Location

Airport or City:

Astronomy

Aug. 25, 2019 Rise Set
Actual Time 6:39 AM EDT 7:52 PM EDT
Civil Twilight 6:13 AM EDT 8:18 PM EDT
Nautical Twilight 5:41 AM EDT 8:50 PM EDT
Astronomical Twilight 5:07 AM EDT 9:23 PM EDT
Moon 1:18 AM EDT (8/25) 4:05 PM EDT (8/25)
Length of Visible Light 14h 05m
Length of Day
13h 12m
Waning Crescent, 29% of the Moon is Illuminated
Aug 25
Waning Crescent
Aug 30
New
Sep 5
First Quarter
Sep 14
Full
Sep 21
Last Quarter

Hourly Weather History & Observations

Time (EDT) Temp. Dew Point Humidity Pressure Visibility Wind Dir Wind Speed Gust Speed Precip Events Conditions
11:55 AM 70.7 °F 55.4 °F 58% 30.16 in 10.0 mi ENE 11.5 mph 16.1 mph N/A   Scattered Clouds
12:15 PM 71.2 °F 55.2 °F 57% 30.16 in 10.0 mi ENE 11.5 mph 18.4 mph N/A   Scattered Clouds
12:35 PM 71.8 °F 55.4 °F 56% 30.16 in 10.0 mi NNE 8.1 mph 16.1 mph N/A   Clear
12:55 PM 72.5 °F 54.7 °F 53% 30.15 in 10.0 mi NE 10.4 mph - N/A   Scattered Clouds
1:15 PM 72.7 °F 54.3 °F 52% 30.15 in 10.0 mi Calm Calm - N/A   Scattered Clouds
1:35 PM 72.9 °F 55.8 °F 55% 30.14 in 10.0 mi NE 9.2 mph - N/A   Scattered Clouds
1:55 PM 73.0 °F 55.6 °F 54% 30.14 in 10.0 mi NE 10.4 mph 17.3 mph N/A   Scattered Clouds
2:15 PM 73.6 °F 54.1 °F 50% 30.14 in 10.0 mi NE 4.6 mph - N/A   Scattered Clouds
2:35 PM 74.5 °F 54.5 °F 50% 30.13 in 10.0 mi ENE 11.5 mph - N/A   Scattered Clouds
2:55 PM 74.3 °F 53.6 °F 48% 30.13 in 10.0 mi NE 10.4 mph - N/A   Scattered Clouds
3:15 PM 75.4 °F 53.4 °F 46% 30.12 in 10.0 mi ENE 8.1 mph - N/A   Clear
3:35 PM 74.7 °F 53.1 °F 47% 30.12 in 10.0 mi ENE 10.4 mph - N/A   Scattered Clouds
3:55 PM 75.6 °F 53.2 °F 46% 30.11 in 10.0 mi ENE 9.2 mph - N/A   Scattered Clouds
4:15 PM 74.7 °F 53.1 °F 47% 30.11 in 10.0 mi NNE 8.1 mph - N/A   Scattered Clouds
4:35 PM 73.9 °F 52.0 °F 46% 30.11 in 10.0 mi NNE 5.8 mph - N/A   Scattered Clouds
4:55 PM 74.1 °F 52.7 °F 47% 30.12 in 10.0 mi Calm Calm - N/A   Scattered Clouds
5:15 PM 74.1 °F 52.2 °F 46% 30.11 in 10.0 mi NE 6.9 mph - N/A   Scattered Clouds
5:35 PM 73.8 °F 54.1 °F 50% 30.11 in 10.0 mi North 4.6 mph - N/A   Scattered Clouds
5:55 PM 72.9 °F 52.7 °F 49% 30.11 in 10.0 mi Calm Calm - N/A   Scattered Clouds
6:15 PM 72.5 °F 54.0 °F 52% 30.10 in 10.0 mi Calm Calm - N/A   Scattered Clouds
6:35 PM 71.8 °F 55.8 °F 57% 30.10 in 10.0 mi Calm Calm - N/A   Scattered Clouds
6:55 PM 71.1 °F 56.7 °F 60% 30.10 in 10.0 mi Calm Calm - N/A   Scattered Clouds
7:15 PM 70.7 °F 56.3 °F 60% 30.10 in 10.0 mi NE 4.6 mph - N/A   Scattered Clouds
7:35 PM 69.8 °F 56.3 °F 62% 30.10 in 10.0 mi Calm Calm - N/A   Mostly Cloudy
7:55 PM 68.9 °F 56.8 °F 65% 30.10 in 10.0 mi Calm Calm - N/A   Mostly Cloudy
8:15 PM 68.4 °F 57.4 °F 68% 30.11 in 10.0 mi Calm Calm - N/A   Mostly Cloudy
8:35 PM 67.8 °F 57.6 °F 70% 30.11 in 10.0 mi Calm Calm - N/A   Mostly Cloudy
8:55 PM 67.1 °F 58.1 °F 73% 30.12 in 10.0 mi Calm Calm - N/A   Scattered Clouds
9:15 PM 65.7 °F 58.8 °F 79% 30.13 in 10.0 mi Calm Calm - N/A   Scattered Clouds
9:35 PM 64.6 °F 59.0 °F 82% 30.14 in 10.0 mi Calm Calm - N/A   Scattered Clouds
9:55 PM 64.2 °F 59.4 °F 84% 30.14 in 10.0 mi Calm Calm - N/A   Scattered Clouds
10:15 PM 64.9 °F 58.5 °F 79% 30.15 in 10.0 mi Calm Calm - N/A   Scattered Clouds
10:35 PM 64.4 °F 58.5 °F 81% 30.15 in 10.0 mi Calm Calm - N/A   Scattered Clouds
10:55 PM 63.7 °F 58.6 °F 84% 30.15 in 10.0 mi Calm Calm - N/A   Scattered Clouds
11:15 PM 64.4 °F 59.5 °F 84% 30.16 in 10.0 mi Calm Calm - N/A   Mostly Cloudy
11:35 PM 64.6 °F 59.4 °F 83% 30.16 in 10.0 mi Calm Calm - N/A   Mostly Cloudy
11:55 PM 63.5 °F 59.4 °F 86% 30.15 in 10.0 mi Calm Calm - N/A   Scattered Clouds